Spokane Fairchild, WA
on Saturday, December 8, 2012

Saturday
Previous Day Next Day
Daily Summary
 ActualAverage (KGEG)Record (KGEG)
Temperature
Mean Temperature °F 28°F  
Max Temperature 34°F 33°F 56°F (1938)
Min Temperature 20°F 23°F -11°F (1972)
Degree Days
Heating Degree Days 38 37  
Month to date heating degree days 289  
Since 1 July heating degree days 1956  
Cooling Degree Days 0 0  
Month to date cooling degree days 0  
Year to date cooling degree days 450  
Moisture
Dew Point 23°F   
Average Humidity 90    
Maximum Humidity 100    
Minimum Humidity 51    
Precipitation
Precipitation 0.00 in 0.08 in 0.90 in (1971)
Month to date precipitation 0.67  
Year to date precipitation 14.93  
Snow
Snow 0.00 in 0.40 in 7.80 in (1971)
Month to date snowfall 3.3  
Since 1 July snowfall 10.8  
Snow Depth in   
Wind
Wind Speed 7 mph   
Max Wind Speed 10 mph   
Max Gust Speed mph   
Visibility 10 miles   
Events     

Key: T is trace of precipitation, MM is missing value
Source: NWS Daily Summary
Time(PST)TemperatureDew PointHumidity Pressure Visibility Wind DirectionWind SpeedGust SpeedPrecipitationEvents Conditions
12:58 AM 25.9°F 25.9°F 100% 29.99 in 10.0 miles WSW 10.4 mph - N/A   Clear
1:45 AM 26.6°F 26.6°F 100% 29.92 in 10.0 miles West 10.4 mph - N/A   Mostly Cloudy
1:58 AM 25.7°F 25.7°F 100% 30.00 in 10.0 miles WSW 6.9 mph - 0.00 in   Mostly Cloudy
1:59 AM 24.8°F 24.8°F 100% 29.93 in 10.0 miles WSW 5.8 mph - N/A   Mostly Cloudy
2:58 AM 25.9°F 25.7°F 99% 30.02 in 10.0 miles West 4.6 mph - 0.00 in   Clear
3:58 AM 25.7°F 24.4°F 95% 30.04 in 10.0 miles SSW 4.6 mph - N/A   Clear
4:39 AM 24.8°F 24.8°F 100% 29.98 in 10.0 miles WSW 9.2 mph - N/A   Clear
4:58 AM 23.7°F 23.7°F 100% 30.06 in 10.0 miles SW 9.2 mph - 0.00 in   Clear
5:06 AM 23.0°F 23.0°F 100% 29.98 in 10.0 miles WSW 10.4 mph - N/A   Clear
5:58 AM 22.1°F 22.1°F 100% 30.09 in 10.0 miles West 9.2 mph - 0.00 in   Clear
6:58 AM 21.7°F 21.7°F 100% 30.10 in 10.0 miles West 4.6 mph - N/A   Clear
7:58 AM 23.0°F 23.0°F 100% 30.14 in 10.0 miles West 6.9 mph - N/A   Clear
8:58 AM 24.6°F 24.6°F 100% 30.15 in 10.0 miles WSW 3.5 mph - N/A   Clear
9:58 AM 26.1°F 26.1°F 100% 30.18 in 10.0 miles WSW 9.2 mph - N/A   Clear
10:58 AM 28.0°F 26.8°F 95% 30.18 in 10.0 miles WSW 8.1 mph - N/A   Clear
11:58 AM 31.5°F 25.9°F 80% 30.17 in 10.0 miles WSW 5.8 mph - N/A   Clear
12:58 PM 34.7°F 19.2°F 53% 30.17 in 10.0 miles West 5.8 mph - N/A   Clear
1:57 PM 33.8°F 19.4°F 56% 30.10 in 10.0 miles West 8.1 mph - N/A   Clear
1:58 PM 34.2°F 17.6°F 51% 30.18 in 10.0 miles West 8.1 mph - N/A   Clear
2:15 PM 32.0°F 19.4°F 60% 30.10 in 10.0 miles WSW 10.4 mph - N/A   Partly Cloudy
2:58 PM 33.8°F 17.4°F 51% 30.19 in 10.0 miles West 8.1 mph - 0.00 in   Clear
3:58 PM 29.7°F 17.2°F 60% 30.22 in 10.0 miles WNW 4.6 mph - N/A   Clear
4:43 PM 26.6°F 21.2°F 80% 30.15 in 10.0 miles NW 3.5 mph - N/A   Scattered Clouds
4:53 PM 24.8°F 24.8°F 100% 30.15 in 10.0 miles NNW 3.5 mph - N/A   Scattered Clouds
4:58 PM 25.5°F 25.2°F 99% 30.25 in 10.0 miles NNW 2.3 mph - 0.00 in   Scattered Clouds
5:54 PM 26.6°F 23.0°F 86% 30.16 in 10.0 miles Calm Calm - N/A   Overcast
5:58 PM 26.2°F 23.7°F 90% 30.26 in 10.0 miles WSW 3.5 mph - 0.00 in   Overcast
6:09 PM 26.6°F 24.8°F 93% 30.17 in 10.0 miles West 1.2 mph - N/A   Overcast
6:18 PM 26.6°F 23.0°F 86% 30.17 in 10.0 miles Calm Calm - N/A   Overcast
6:31 PM 26.6°F 21.2°F 80% 30.17 in 10.0 miles North 2.3 mph - N/A   Overcast
6:34 PM 26.6°F 23.0°F 86% 30.17 in 10.0 miles North 2.3 mph - N/A   Overcast
6:43 PM 26.6°F 26.6°F 100% 30.18 in 10.0 miles North 3.5 mph - N/A   Overcast
6:58 PM 25.0°F 25.0°F 100% 30.29 in 10.0 miles NNE 3.5 mph - 0.00 in   Overcast
7:58 PM 24.6°F 24.6°F 100% 30.30 in 10.0 miles West 2.3 mph - N/A   Overcast
8:58 PM 23.5°F 23.5°F 100% 30.31 in 10.0 miles WSW 5.8 mph - N/A   Scattered Clouds
9:58 PM 23.4°F 23.4°F 100% 30.33 in 10.0 miles WNW 4.6 mph - N/A   Clear
10:00 PM 23.0°F 23.0°F 100% 30.23 in 10.0 miles WNW 4.6 mph - N/A   Clear
10:09 PM 21.2°F 21.2°F 100% 30.23 in 10.0 miles WNW 3.5 mph - N/A   Clear
10:44 PM 23.0°F 23.0°F 100% 30.24 in 10.0 miles NW 4.6 mph - N/A   Clear
10:53 PM 23.0°F 23.0°F 100% 30.24 in 10.0 miles NW 4.6 mph - N/A   Clear
10:58 PM 22.5°F 22.5°F 100% 30.34 in 10.0 miles NW 4.6 mph - 0.00 in   Clear
11:58 PM 20.5°F 20.5°F 100% 30.35 in 10.0 miles WNW 4.6 mph - N/A   Clear
Moon Phase
Dec. 08 Dec. 13 Dec. 20 Dec. 28 Jan. 04
Sunrise:07:26 AM (PST) Moon Rise:01:38 AM (PST)12/8
Sunset:03:59 PM (PST) Moon Set:12:48 PM (PST)12/8

Copyright © 2014 The Weather Underground, Inc.